Home > Weather > Szczecin > Past weeks

Flag for Poland Past Weather in Szczecin, Poland — Yesterday and Last 2 Weeks

Now
57 °F

Passing clouds.


Feels Like: 57 °F
Forecast: 54 / 73 °F
Wind: 5 mph from North

Location: Szczecin Airport

Current Time: May 26, 2016 at 10:31:32 PM

Latest Report: May 26, 2016 at 10:00 PM


Visibility: N/A

Pressure: 30.01 "Hg

Humidity: 94%

Dew Point: 55 °F

Location of SzczecinLocation

Past Weather in Szczecin — Graph

°F

Szczecin Temperature Yesterday

Maximum temperature yesterday: 75 °F (at 3:00 PM)
Minimum temperature yesterday: 54 °F (at 11:30 PM)
Average temperature yesterday: 64 °F

High & Low Weather Summary for the Past Weeks

 TemperatureHumidityPressure
High84 °F (May 23, 3:30 PM)100% (May 16, 5:00 AM)30.04 "Hg (May 16, 5:00 AM)
Low36 °F (May 14, 3:30 AM)25% (May 23, 6:00 PM)29.53 "Hg (May 13, 1:00 PM)
Average59 °F68%29.82 "Hg
* Reported May 11 9:00 PM — May 26 9:30 PM, Szczecin, Weather by CustomWeather, © 2016

Note: Actual official high and low records may vary slightly from our data, if they occured in-between our weather recording intervals... More about our weather records

Advertising

Szczecin Weather History for the Previous 24 Hours

Scroll right to see more
 ConditionsComfort  
Time TempWeatherWind HumidityBarometerVisibility
9:30 PM
Thu, May 26
59 °FScattered clouds.5 mph88%30.01 "HgN/A
9:00 PM61 °FSunny.6 mph88%30.01 "Hg10 mi
8:30 PM61 °FPassing clouds.7 mph88%29.98 "HgN/A
8:00 PM63 °FBroken clouds.3 mph88%29.98 "HgN/A
7:30 PM59 °FRain. Cloudy.2 mph100%29.98 "Hg1 mi
7:00 PM66 °FBroken clouds.8 mph73%29.98 "HgN/A
6:30 PM68 °FPartly sunny.6 mph64%29.98 "HgN/A
6:00 PM68 °FScattered clouds.6 mph64%29.98 "HgN/A
5:30 PM68 °FPartly sunny.5 mph64%29.98 "HgN/A
5:00 PM70 °FScattered clouds.8 mph60%29.98 "HgN/A
4:00 PM72 °FPassing clouds.7 mph57%29.98 "HgN/A
3:30 PM70 °FPassing clouds.7 mph57%29.98 "HgN/A
3:00 PM70 °FPassing clouds.5 mph53%29.98 "HgN/A
2:30 PM70 °FPassing clouds.6 mph57%29.98 "HgN/A
2:00 PM68 °FPassing clouds.5 mph60%29.98 "HgN/A
1:30 PM66 °FPassing clouds.5 mph68%29.98 "HgN/A
1:00 PM64 °FScattered clouds.2 mph68%29.98 "HgN/A
12:30 PM64 °FPassing clouds.5 mph68%29.98 "HgN/A
12:00 PM61 °FScattered clouds.3 mph72%30.01 "HgN/A
11:30 AM61 °FBroken clouds.6 mph72%29.98 "HgN/A
11:00 AM57 °FLow clouds.5 mph82%30.01 "HgN/A
10:30 AM55 °FPartly sunny.5 mph88%30.01 "HgN/A
10:00 AM55 °FMore clouds than sun.6 mph82%30.01 "HgN/A
9:30 AM54 °FMore clouds than sun.6 mph88%30.01 "HgN/A
9:00 AM54 °FMostly cloudy.6 mph88%29.98 "HgN/A
8:30 AM52 °FPartly sunny.5 mph94%29.98 "HgN/A
8:00 AM52 °FBroken clouds.6 mph94%29.98 "HgN/A
7:30 AM52 °FLow clouds.6 mph94%29.98 "Hg4 mi
7:00 AM52 °FFog.5 mph94%29.95 "Hg3 mi
6:30 AM50 °FFog.5 mph100%29.95 "Hg1 mi
6:00 AM50 °FFog.6 mph100%29.95 "Hg2 mi
5:30 AM50 °FFog.6 mph100%29.95 "Hg3 mi
5:00 AM50 °FPassing clouds.5 mph100%29.95 "Hg4 mi
4:30 AM52 °FLow clouds.6 mph94%29.95 "Hg4 mi
4:00 AM52 °FPassing clouds.5 mph94%29.95 "Hg4 mi
3:30 AM52 °FFog.5 mph94%29.95 "Hg3 mi
3:00 AM52 °FFog.5 mph94%29.95 "Hg2 mi
2:30 AM50 °FFog.5 mph100%29.95 "Hg1 mi
2:00 AM50 °FFog.5 mph100%29.95 "Hg2 mi
1:30 AM50 °FFog.7 mph100%29.95 "Hg2 mi
1:00 AM50 °FFog.3 mph100%29.95 "Hg3 mi
12:30 AM50 °FPassing clouds.7 mph100%29.92 "Hg4 mi
12:00 AM52 °FPassing clouds.5 mph94%29.92 "HgN/A
11:30 PM
Wed, May 25
54 °FPassing clouds.5 mph88%29.92 "HgN/A
11:00 PM55 °FClear.7 mph82%29.92 "Hg10 mi
10:30 PM57 °FClear.7 mph77%29.92 "Hg10 mi
10:00 PM59 °FSunny.6 mph72%29.92 "Hg10 mi
Weather by CustomWeather, © 2016

See weather overviewHow to use our weather pages